TimeCST,TemperatureF,Dew PointF,Humidity,Sea Level PressureIn,VisibilityMPH,Wind Direction,Wind SpeedMPH,Gust SpeedMPH,PrecipitationIn,Events,Conditions,WindDirDegrees,DateUTC
12:53 AM,37.9,30.9,76,29.93,10.0,WNW,8.1,-,N/A,,Clear,290,2012-12-02 06:53:00
1:53 AM,42.1,33.1,70,29.93,10.0,WNW,4.6,-,N/A,,Clear,290,2012-12-02 07:53:00
2:53 AM,34.0,30.0,85,29.96,10.0,SW,8.1,-,N/A,,Clear,220,2012-12-02 08:53:00
3:53 AM,36.0,30.0,79,29.95,10.0,West,5.8,-,N/A,,Clear,270,2012-12-02 09:53:00
4:53 AM,35.1,30.9,85,29.98,10.0,WSW,4.6,-,N/A,,Clear,240,2012-12-02 10:53:00
5:53 AM,30.9,28.9,92,29.99,10.0,ENE,5.8,-,N/A,,Clear,70,2012-12-02 11:53:00
6:53 AM,30.9,28.9,92,30.02,10.0,SSE,3.5,-,N/A,,Clear,150,2012-12-02 12:53:00
7:53 AM,30.0,27.0,88,30.04,10.0,Calm,Calm,-,N/A,,Clear,0,2012-12-02 13:53:00
8:53 AM,39.0,34.0,82,30.02,10.0,South,5.8,-,N/A,,Clear,190,2012-12-02 14:53:00
9:53 AM,46.9,34.0,61,30.01,10.0,SSW,8.1,-,N/A,,Clear,200,2012-12-02 15:53:00
10:53 AM,55.9,36.0,47,29.98,10.0,South,5.8,-,N/A,,Clear,180,2012-12-02 16:53:00
11:53 AM,63.0,37.0,38,29.94,10.0,SSE,11.5,-,N/A,,Clear,160,2012-12-02 17:53:00
12:53 PM,69.1,36.0,30,29.89,10.0,South,15.0,-,N/A,,Clear,190,2012-12-02 18:53:00
1:53 PM,69.1,34.0,27,29.86,10.0,South,12.7,-,N/A,,Clear,180,2012-12-02 19:53:00
2:53 PM,69.1,35.1,29,29.83,10.0,South,15.0,-,N/A,,Clear,180,2012-12-02 20:53:00
3:53 PM,66.9,35.1,31,29.82,10.0,South,13.8,-,N/A,,Clear,170,2012-12-02 21:53:00
4:53 PM,63.0,36.0,37,29.82,10.0,South,15.0,-,N/A,,Clear,190,2012-12-02 22:53:00
5:53 PM,57.2,35.6,44,29.81,10.0,South,10.4,-,N/A,,Clear,170,2012-12-02 23:53:00
6:53 PM,53.1,37.0,55,29.82,10.0,South,10.4,-,N/A,,Clear,170,2012-12-03 00:53:00
7:53 PM,52.0,37.9,59,29.81,10.0,South,13.8,-,N/A,,Clear,170,2012-12-03 01:53:00
8:53 PM,50.0,37.9,63,29.77,10.0,South,15.0,-,N/A,,Clear,170,2012-12-03 02:53:00
9:53 PM,48.9,39.0,69,29.75,10.0,South,11.5,-,N/A,,Clear,170,2012-12-03 03:53:00
10:53 PM,44.1,37.9,79,29.71,10.0,South,10.4,-,N/A,,Clear,170,2012-12-03 04:53:00
11:53 PM,46.0,39.9,79,29.67,10.0,South,10.4,-,N/A,,Clear,170,2012-12-03 05:53:00